weather.gov     
National Weather Service

Regional Weather Roundup
NWS Homepage
This page is being discontinued on March 12, 2014.
The same data is available at this site. Please update your bookmarks.
Thank you, and we apologize for the inconvenience.
Please send an email to SR-SRH.Webmaster@noaa.gov with any concerns.


Current Version
Previous Version:    01  02  03  04  05  06  07  08  09  10  11  12  13  14  15  16  17  18  19  20  21  22  23  24  25  26  27  28  29  30  
   31  32  33  34  35  36  37  38  39  40  41  42  43  44  45  46  47  48  49  50  51  52  53  54  
[Printable]
345
ASUS43 KFGF 201110
RWRFGF
PRAIRIE TO PINES  WEATHER ROUNDUP
NATIONAL WEATHER SERVICE EASTERN NORTH DAKOTA/GRAND FORKS ND
600 AM CDT MON OCT 20 2014

 **SATELLITE DATA USED TO AUGMENT SKY COVER AT AUTOMATED STATIONS**
 *****  WEATHER ACROSS EASTERN NORTH DAKOTA  *****

CITY           SKY/WX    TMP DP  RH WIND       PRES   REMARKS
GRAND FORKS    CLEAR     36  35  96 NW3       30.02R
GRAND FRKS AFB CLEAR     36  36  99 NW5       30.03R
GRAND FRKS NWS   N/A     37 N/A N/A N3          N/A
DEVILS LAKE    CLEAR     37  30  75 CALM      30.02R
FARGO          CLEAR     39  34  82 N8        30.01R
WAHPETON ARPT  SUNNY     32  28  86 W6        30.02R
$$

 ***** WEATHER ACROSS CENTRAL AND WESTERN NORTH DAKOTA  *****

CITY           SKY/WX    TMP DP  RH WIND       PRES   REMARKS
BISMARCK       MOCLDY    32  31  96 CALM      30.06S
MINOT          CLEAR     44  34  67 SW9       30.00S
JAMESTOWN      CLEAR     38  35  89 W3        30.04R
MINOT AFB      CLEAR     42  36  77 SW7       30.00R
GARRISON         N/A     33  30  88 CALM      30.02S
WILLISTON      CLEAR     38  33  82 CALM      29.98F
DICKINSON      CLEAR     38  33  82 S8        30.01S
HETTINGER      CLEAR     38  32  79 SE5       30.06S
$$

 *****  OTHER AIRPORT OBSERVATIONS IN OUR AREA  *****

CITY           SKY/WX    TMP DP  RH WIND       PRES   REMARKS
WALHALLA       FAIR      32  32 100 W5        30.05R
GRAFTON AIRPOR FAIR      37  37 100 NW7       30.03R
VALLEY CITY AR FAIR      39  39 100 NW7       30.03R
CANDO          FAIR      34  32  93 NE3       30.04S
CAVALIER APRT  FAIR      37  36  93 NW5       30.04R
GWINNER        SUNNY     43  36  75 W10       30.04R
ROLLA          FAIR      32  32 100 CALM      30.04S
 ***** THE ABOVE OBSERVATIONS ARE NON NWS ARE NOT QUALITY
       CONTROLLED AND MAY MIS-REPORT RAIN FOR SNOW...
$$

  *****  WEATHER ACROSS NORTHERN MINNESOTA  *****

CITY           SKY/WX    TMP DP  RH WIND       PRES   REMARKS
FLAG ISLAND    CLOUDY    43  39  87 NW15      29.97R
WARROAD        CLEAR     39  36  87 NW7       30.00R
ROSEAU         CLEAR     37  34  87 NW5       30.00R
HALLOCK        CLEAR     37  36  93 N7        30.03R
THF RVR FALLS  CLEAR     39  36  87 N6        30.01R
BAUDETTE       CLOUDY    41  39  93 W6        29.97R
WASKISH        MOCLDY    43  41  93 NW6       29.96R
CROOKSTON      CLEAR     36  34  93 N6        30.03R
STEPHEN NDAWN    N/A     36  34  93 N3          N/A
GREENBUSH NDAW   N/A     37  36  93 NW5         N/A
$$
  *****  WEATHER ACROSS CENTRAL AND WEST MINNESOTA  *****

CITY           SKY/WX    TMP DP  RH WIND       PRES   REMARKS
FOSSTON        CLEAR     34  32  93 CALM      30.01R
BEMIDJI        CLEAR     32  32  98 W8        29.97R
PARK RAPIDS    CLEAR     38  36  92 CALM      29.97R
ELBOW LAKE     FAIR      41  37  85 N6        29.99S
WADENA         CLEAR     39  37  93 NW6       29.97S
DETROIT LAKES  CLEAR     41  37  87 NW5       30.00S
MOORHEAD       CLEAR     39  37  93 N3        30.02R
FERGUS FALLS   CLEAR     39  34  81 N5        30.01S
MORRIS MN      CLEAR     37  36  93 NW5       29.99R
STAPLES        CLEAR     37  36  93 W5        29.97R
$$
  *****  WEATHER ELSEWHERE ACROSS MINNESOTA  *****

CITY           SKY/WX    TMP DP  RH WIND       PRES   REMARKS
DULUTH         CLEAR     45  40  82 NW8       29.88R
INTRNTL FALLS  CLOUDY    41  40  96 NW8       29.93R
ELY            CLOUDY    45  39  81 NW5       29.88R
CLOQUET        FAIR      43  39  87 W7        29.90R
WHEATON        CLEAR     37  36  93 W3        30.03S
BRAINERD       CLEAR     41  39  93 CALM      29.96R
HIBBING        MOCLDY    43  39  86 NW5       29.90S
ALEXANDRIA     CLEAR     42  38  85 NW7       29.99R
SAINT CLOUD    CLEAR     47  40  76 NW5       29.95R
MINNEAPOLIS    CLEAR     47  41  80 W3        29.94R
$$

  *****  WEATHER ACROSS SOUTH DAKOTA  *****

CITY           SKY/WX    TMP DP  RH WIND       PRES   REMARKS
SIOUX FALLS    CLEAR     37  34  89 CALM      30.04R
BROOKINGS      NOT AVBL
WATERTOWN      CLEAR     34  33  96 CALM      30.04R
HURON          CLEAR     33  30  88 CALM      30.07R
SISSETON         N/A     40  35  83 NW5       30.01R
ABERDEEN       CLEAR     32  29  88 CALM      30.05R
MITCHELL       CLEAR     35  32  88 NW3       30.07R
PIERRE         PTCLDY    40  34  79 CALM      30.07R
MOBRIDGE       MOCLDY    35  33  92 CALM      30.04S
RAPID CITY     CLEAR     43  36  76 CALM      30.06F
$$

  *****  SOME WEATHER IN NEARBY STATES *****

CITY           SKY/WX    TMP DP  RH WIND       PRES   REMARKS
GLASGOW MT     CLEAR     42  35  76 E14       29.88F
GREAT FALLS MT CLEAR     53  29  39 S13       29.86S
CHEYENNE WY    CLEAR     39  32  76 W8        30.17F
SCOTTSBLUFF NE CLEAR     37  34  89 CALM      30.11S
OMAHA NE       CLEAR     47  44  90 N8        30.02R
DES MOINES IA  CLEAR     48  43  82 N7        29.98R
DAVENPORT IA   CLEAR     44  40  85 W9        29.88R
CHICAGO IL     MOCLDY    49  44  83 SW8       29.80F
EAU CLAIRE WI  CLEAR     43  39  86 W6        29.89R
LA CROSSE WI   CLEAR     43  40  89 CALM      29.90R
$$

  *****  SOME NATIONAL WEATHER *****

CITY           SKY/WX    TMP DP  RH WIND       PRES   REMARKS
LA GUARDIA NY  MOCLDY    45  30  55 W6        30.09F
RALEIGH NC     PTCLDY    44  40  85 CALM      30.15S
ATLANTA GA     CLEAR     52  47  83 CALM      30.10F
NEW ORLEANS LA PTCLDY    59  55  87 CALM      30.03R
OKLAHOMA CITY  PTCLDY    56  52  86 S7        30.04R
ALBUQUERQUE NM PTCLDY    50  43  77 CALM      30.18S
SALT LAKE CITY CLEAR     48  39  71 E7        30.03S
LOS ANGELES CA MOCLDY    66  62  87 W3        29.88F
BOISE ID       CLEAR     55  31  39 SE8       29.85F
SEATTLE WA     LGT RAIN  58  56  93 SE9       29.71F
$$

*** WEATHER ACROSS MANITOBA...SASKATCHEWAN AND ONTARIO ***
                ***ONTARIO***

CITY           SKY/WX    TMP DP  RH WIND       PRES   REMARKS
GERALDTON      FOG       37  37 100 N5        29.79  VSB 3/4
THUNDER BAY    CLOUDY    46  43  87 NW5       29.83R
SIOUX LOOKOUT  CLOUDY    41  41 100 N5        29.91R
TORONTO        LGT RAIN  45  39  81 SE3       29.89F
BIG TROUT LK   FOG       32  30  93 N5        29.98R VSB 1/2
PICKLE LAKE    CLOUDY    34  32  93 N6        29.90
DRYDEN         CLOUDY    43  39  87 N8        29.92R
KENORA         MOCLDY    43  36  75 N9        29.96R
$$
                *** MANITOBA***

CITY           SKY/WX    TMP DP  RH WIND       PRES   REMARKS
BRANDON        CLEAR     30  28  93 E5        30.03S FOG
DAUPHIN        CLOUDY    30  28  93 W5        30.02R
ISLAND LAKE    NOT AVBL
PILOT MOUND      N/A     30  30 100 SW1         N/A
THE PAS        PTCLDY    39  37  93 SE9       29.99S
THOMPSON       DRIZZLE   32  32 100 NE2       30.05R FOG
WINNIPEG       CLOUDY    43  39  87 N6        30.04S
LYNN LAKE      CLOUDY    36  34  93 S7        30.00R
CHURCHILL      CLOUDY    34  34 100 NW6       30.05R
GILLAM         DRIZZLE   36  34  93 N5        30.05R FOG
$$
                ***SASKATCHEWAN***

CITY           SKY/WX    TMP DP  RH WIND       PRES   REMARKS
ESTEVAN        CLEAR     39  36  87 S7        29.97S
KINDERSLEY     PTCLDY    41  36  81 S9        29.73S
LLOYDMINSTER   CLEAR     45  36  70 S7        29.62F
PRINCE ALBERT  PTCLDY    37  36  93 E9        29.80F
REGINA         CLEAR     39  36  87 SE13      29.90F
YORKTON        CLEAR     43  39  87 SE12      29.95S
N. BATTLEFORD  CLEAR     45  37  76 SE14      29.71F
LA RONGE       CLEAR     45  41  87 E12       29.83F
SASKATOON      CLEAR     43  39  87 S9        29.78F
SWIFT CURRENT  CLEAR     48  39  71 S18       29.79F
$$
NOTE: THESE ARE AUTOMATED STATIONS WITH LIMITED QUALITY CONTROL
      "FAIR" INDICATES FEW OR NO CLOUDS BELOW 12,000 FEET WITH NO
      SIGNIFICANT WEATHER AND/OR OBSTRUCTIONS TO VISIBILITY.
      SKY/WX - SKY CONDITION AND SIGNIFICANT WEATHER.
      TMP - AIR TEMPERATURE.    DP   - DEWPOINT TEMPERATURE.
      RH  - RELATIVE HUMIDITY.  PRES - PRESSURE.
      HX  - HEAT INDEX.         WCI  - WIND CHILL INDEX.
$




U.S. Dept. of Commerce
NOAA National Weather Service
1325 East West Highway
Silver Spring, MD 20910
E-mail: w-nws.webmaster@noaa.gov
Page last modified: May 16, 2007
NATIONAL WEATHER SERVICE: for Safety, for Work, for Fun - FOR LIFE